EW0435 Weather Reports


time (UTC)temp
C
wind
direction
speed
KPH
gust
KPH
rain 1hr
cm
rain 24hr
cm
rain mn
cm
humidity
%
barometer
mb
20260503051004 14 305 0.0 0.0 0.00 0.00 0.00 47 1019.9
20260503050504 14 307 0.0 0.0 0.00 0.00 0.00 47 1019.9
20260503050005 14 322 0.0 0.0 0.00 0.00 0.00 48 1019.9
20260503045504 14 316 0.0 0.0 0.00 0.00 0.00 48 1019.9
20260503045004 14 315 0.0 0.0 0.00 0.00 0.00 48 1019.9
20260503044504 14 313 0.0 0.0 0.00 0.00 0.00 48 1019.8
20260503043504 14 303 0.0 0.0 0.00 0.00 0.00 49 1019.8
20260503043005 14 317 0.0 0.0 0.00 0.00 0.00 50 1019.8
20260503042504 14 316 0.0 0.0 0.00 0.00 0.00 50 1019.8
20260503042004 14 316 0.0 0.0 0.00 0.00 0.00 51 1019.7
20260503041504 14 315 0.0 0.0 0.00 0.00 0.00 51 1019.7
20260503041004 14 315 0.0 0.0 0.00 0.00 0.00 52 1019.7
20260503040004 15 315 0.0 0.0 0.00 0.00 0.00 51 1019.6
20260503035504 15 315 0.0 0.0 0.00 0.00 0.00 49 1019.5
20260503035004 16 313 0.0 0.0 0.00 0.00 0.00 48 1019.5
20260503034504 16 306 0.0 0.0 0.00 0.00 0.00 49 1019.5
20260503033503 16 320 0.0 0.0 0.00 0.00 0.00 50 1019.4
20260503033004 16 320 0.0 0.0 0.00 0.00 0.00 49 1019.4
20260503032503 16 320 0.0 0.0 0.00 0.00 0.00 49 1019.3
20260503031504 16 320 0.0 0.0 0.00 0.00 0.00 49 1019.2
20260503031003 16 320 0.0 0.0 0.00 0.00 0.00 48 1019.2
20260503025004 17 317 0.0 0.0 0.00 0.00 0.00 48 1019.1
20260503024505 17 317 0.0 0.0 0.00 0.00 0.00 48 1019.1
20260503024003 17 319 0.0 0.0 0.00 0.00 0.00 49 1019.2
20260503023504 17 319 0.0 0.0 0.00 0.00 0.00 50 1019.1
20260503022504 18 310 0.0 0.0 0.00 0.00 0.00 50 1019.1
20260503022004 18 301 0.0 1.6 0.00 0.00 0.00 50 1019.1
20260503021503 18 329 0.0 0.0 0.00 0.00 0.00 51 1019.1
20260503021004 19 331 0.0 0.0 0.00 0.00 0.00 50 1019.0
20260503020503 19 331 0.0 0.0 0.00 0.00 0.00 48 1019.0
20260503020004 21 331 0.0 0.0 0.00 0.00 0.00 46 1019.0
20260503015504 21 331 0.0 0.0 0.00 0.00 0.00 37 1019.0
20260503015004 22 331 0.0 0.0 0.00 0.00 0.00 36 1019.0
20260503014504 22 331 0.0 0.0 0.00 0.00 0.00 33 1019.0
20260503014004 22 331 0.0 0.0 0.00 0.00 0.00 32 1019.0
20260503013503 22 332 0.0 0.0 0.00 0.00 0.00 31 1019.0
20260503013005 22 332 0.0 0.0 0.00 0.00 0.00 32 1019.0
20260503012504 22 332 0.0 0.0 0.00 0.00 0.00 33 1019.0
20260503012005 22 332 0.0 0.0 0.00 0.00 0.00 34 1019.0
20260503011504 22 331 0.0 0.0 0.00 0.00 0.00 33 1019.1
20260503011004 22 331 0.0 0.0 0.00 0.00 0.00 31 1019.0
20260503010504 22 330 0.0 0.0 0.00 0.00 0.00 30 1019.1
20260503010004 22 330 0.0 0.0 0.00 0.00 0.00 30 1019.1
20260503005504 22 329 0.0 0.0 0.00 0.00 0.00 29 1019.2
20260503004004 23 327 0.0 0.0 0.00 0.00 0.00 29 1019.2
20260503003503 23 326 0.0 0.0 0.00 0.00 0.00 30 1019.2
20260503003004 23 323 0.0 0.0 0.00 0.00 0.00 27 1019.2
20260503002504 23 27 0.0 0.0 0.00 0.00 0.00 26 1019.3
20260503002004 23 27 0.0 0.0 0.00 0.00 0.00 27 1019.3
20260503001504 23 27 0.0 0.0 0.00 0.00 0.00 27 1019.3
20260503001004 22 27 0.0 0.0 0.00 0.00 0.00 30 1019.3
20260503000504 22 27 0.0 0.0 0.00 0.00 0.00 28 1019.3
20260503000004 22 27 0.0 0.0 0.00 0.00 0.00 27 1019.3
20260502235504 22 22 0.0 0.0 0.00 0.00 0.00 29 1019.4
20260502235004 22 24 0.0 0.0 0.00 0.00 0.00 30 1019.4
20260502234504 22 30 0.0 0.0 0.00 0.00 0.00 29 1019.4
20260502234004 22 56 0.0 0.0 0.00 0.00 0.00 27 1019.5
20260502233504 23 57 0.0 0.0 0.00 0.00 0.00 25 1019.5
20260502232504 23 35 0.0 0.0 0.00 0.00 0.00 24 1019.5
20260502231504 23 60 0.0 0.0 0.00 0.00 0.00 24 1019.6
20260502231004 23 47 0.0 0.0 0.00 0.00 0.00 22 1019.6
20260502230005 23 48 0.0 0.0 0.00 0.00 0.00 27 1019.8
20260502225504 23 46 0.0 0.0 0.00 0.00 0.00 27 1019.8
20260502225004 23 44 0.0 0.0 0.00 0.00 0.00 27 1019.8
20260502224504 23 44 0.0 0.0 0.00 0.00 0.00 29 1019.8
20260502224004 22 61 0.0 0.0 0.00 0.00 0.00 27 1019.9
20260502223504 22 53 0.0 0.0 0.00 0.00 0.00 28 1020.0
20260502222504 23 55 0.0 0.0 0.00 0.00 0.00 26 1020.1
20260502222005 22 15 0.0 1.6 0.00 0.00 0.00 25 1020.1
20260502221504 22 56 0.0 0.0 0.00 0.00 0.00 27 1020.2
20260502221004 22 52 0.0 0.0 0.00 0.00 0.00 26 1020.1
20260502220505 22 61 0.0 0.0 0.00 0.00 0.00 28 1020.2
20260502220004 22 44 0.0 0.0 0.00 0.00 0.00 28 1020.2
20260502215504 22 44 0.0 0.0 0.00 0.00 0.00 28 1020.2
20260502215004 21 57 0.0 0.0 0.00 0.00 0.00 25 1020.3
20260502214504 22 60 0.0 1.6 0.00 0.00 0.00 27 1020.4
20260502214004 22 76 0.0 1.6 0.00 0.00 0.00 25 1020.4
20260502213504 23 23 0.0 0.0 0.00 0.00 0.00 25 1020.4
20260502212504 22 59 0.0 4.8 0.00 0.00 0.00 27 1020.4
20260502212004 22 62 0.0 1.6 0.00 0.00 0.00 27 1020.5
20260502211505 23 49 0.0 0.0 0.00 0.00 0.00 31 1020.5
20260502211004 22 46 0.0 0.0 0.00 0.00 0.00 30 1020.6
20260502210504 22 66 0.0 0.0 0.00 0.00 0.00 30 1020.7
20260502210004 22 67 0.0 0.0 0.00 0.00 0.00 34 1020.7
20260502205503 21 58 0.0 0.0 0.00 0.00 0.00 36 1020.7
20260502204504 21 79 0.0 9.7 0.00 0.00 0.00 36 1020.7
20260502203503 21 66 0.0 0.0 0.00 0.00 0.00 36 1020.8
20260502202504 22 68 0.0 1.6 0.00 0.00 0.00 34 1020.8
20260502202004 22 34 0.0 0.0 0.00 0.00 0.00 32 1020.8
20260502201503 22 43 0.0 0.0 0.00 0.00 0.00 34 1020.8
20260502201004 21 54 0.0 0.0 0.00 0.00 0.00 32 1020.9
20260502200004 22 56 0.0 0.0 0.00 0.00 0.00 34 1020.9
20260502195503 22 46 0.0 1.6 0.00 0.00 0.00 35 1020.9
20260502195004 21 21 0.0 1.6 0.00 0.00 0.00 34 1020.9
20260502194504 21 49 0.0 1.6 0.00 0.00 0.00 35 1020.9
20260502193504 20 80 0.0 0.0 0.00 0.00 0.00 37 1021.0
20260502193004 20 93 0.0 0.0 0.00 0.00 0.00 32 1021.0
20260502192504 20 84 0.0 0.0 0.00 0.00 0.00 39 1021.0
20260502192004 20 134 0.0 0.0 0.00 0.00 0.00 37 1021.0
20260502191503 19 85 0.0 0.0 0.00 0.00 0.00 41 1021.0
20260502191003 19 85 0.0 0.0 0.00 0.00 0.00 41 1021.2
20260502190504 18 114 0.0 0.0 0.00 0.00 0.00 41 1021.2
20260502190004 19 108 0.0 0.0 0.00 0.00 0.00 40 1021.2
20260502185504 19 61 0.0 0.0 0.00 0.00 0.00 40 1021.2
20260502185004 19 54 0.0 0.0 0.00 0.00 0.00 40 1021.2
20260502184503 18 83 0.0 0.0 0.00 0.00 0.00 41 1021.2
20260502184004 18 65 0.0 0.0 0.00 0.00 0.00 38 1021.2
20260502183504 19 86 0.0 0.0 0.00 0.00 0.00 42 1021.2
20260502183004 18 72 0.0 1.6 0.00 0.00 0.00 39 1021.2
20260502182504 18 92 0.0 1.6 0.00 0.00 0.00 39 1021.2
20260502182004 18 82 0.0 0.0 0.00 0.00 0.00 40 1021.2
20260502181005 18 137 0.0 3.2 0.00 0.00 0.00 38 1021.3
20260502180504 18 105 0.0 1.6 0.00 0.00 0.00 42 1021.3
20260502164003 17 159 0.0 0.0 0.00 0.00 0.00 34 1021.2
20260502163504 17 139 0.0 0.0 0.00 0.00 0.00 35 1021.1
20260502163004 17 150 0.0 0.0 0.00 0.00 0.00 38 1021.1
20260502162504 17 156 0.0 0.0 0.00 0.00 0.00 38 1021.1
20260502161504 16 162 0.0 1.6 0.00 0.00 0.00 44 1021.1
20260502161004 16 127 0.0 0.0 0.00 0.00 0.00 53 1021.1
20260502160504 15 160 0.0 1.6 0.00 0.00 0.00 55 1021.1
20260502152004 13 152 0.0 0.0 0.00 0.00 0.00 62 1021.2
20260502151504 12 157 0.0 0.0 0.00 0.00 0.00 63 1021.1
20260502151004 12 157 0.0 0.0 0.00 0.00 0.00 64 1021.2
20260502150504 12 156 0.0 0.0 0.00 0.00 0.00 66 1021.2
20260502123504 9 233 0.0 0.0 0.00 0.00 0.00 60 1020.9
20260502123005 9 233 0.0 0.0 0.00 0.00 0.00 60 1020.9
20260502122504 9 233 0.0 0.0 0.00 0.00 0.00 60 1020.8
20260502121504 9 233 0.0 0.0 0.00 0.00 0.00 60 1020.8
20260502121005 9 233 0.0 0.0 0.00 0.00 0.00 60 1020.8
20260502120504 9 233 0.0 0.0 0.00 0.00 0.00 60 1020.9
20260502115504 9 233 0.0 0.0 0.00 0.00 0.00 60 1020.8
20260502113004 10 233 0.0 0.0 0.00 0.00 0.00 55 1020.9
20260502112504 10 233 0.0 0.0 0.00 0.00 0.00 54 1020.8
20260502112004 10 233 0.0 0.0 0.00 0.00 0.00 54 1020.8
20260502111504 10 233 0.0 0.0 0.00 0.00 0.00 54 1020.8
20260502111004 10 233 0.0 0.0 0.00 0.00 0.00 56 1020.9
20260502110504 10 233 0.0 0.0 0.00 0.00 0.00 56 1020.9
20260502110004 9 233 0.0 0.0 0.00 0.00 0.00 58 1020.9
20260502105503 9 233 0.0 0.0 0.00 0.00 0.00 58 1021.0
20260502105004 9 233 0.0 0.0 0.00 0.00 0.00 57 1020.9
20260502104504 9 233 0.0 0.0 0.00 0.00 0.00 57 1021.0
20260502103504 10 233 0.0 0.0 0.00 0.00 0.00 55 1020.9
20260502103004 10 233 0.0 0.0 0.00 0.00 0.00 54 1021.0
20260502102504 10 233 0.0 0.0 0.00 0.00 0.00 52 1021.0
20260502101504 11 233 0.0 0.0 0.00 0.00 0.00 49 1020.9
20260502101005 11 233 0.0 0.0 0.00 0.00 0.00 47 1020.9
20260502091504 11 233 0.0 0.0 0.00 0.00 0.00 46 1020.9
20260502091004 11 233 0.0 0.0 0.00 0.00 0.00 47 1020.9
20260502090504 11 233 0.0 0.0 0.00 0.00 0.00 48 1021.0
20260502071504 11 233 0.0 0.0 0.00 0.00 0.00 51 1021.3
20260502071004 11 233 0.0 0.0 0.00 0.00 0.00 51 1021.3
20260502070504 11 233 0.0 0.0 0.00 0.00 0.00 51 1021.3
20260502070004 12 233 0.0 0.0 0.00 0.00 0.00 50 1021.3
20260502065504 12 233 0.0 0.0 0.00 0.00 0.00 49 1021.3
20260502065004 12 233 0.0 0.0 0.00 0.00 0.00 47 1021.3
20260502064504 12 233 0.0 0.0 0.00 0.00 0.00 48 1021.3
20260502064004 12 233 0.0 0.0 0.00 0.00 0.00 48 1021.3
20260502062004 12 233 0.0 0.0 0.00 0.00 0.00 48 1021.3
20260502061505 12 233 0.0 0.0 0.00 0.00 0.00 49 1021.3
20260502061004 13 233 0.0 0.0 0.00 0.00 0.00 47 1021.2
20260502060505 14 24 0.0 0.0 0.00 0.00 0.00 44 1021.3
20260502055004 14 24 0.0 0.0 0.00 0.00 0.00 43 1021.3
20260502054504 14 24 0.0 0.0 0.00 0.00 0.00 44 1021.3
20260502054004 14 24 0.0 0.0 0.00 0.00 0.00 45 1021.4
20260502053504 14 25 0.0 0.0 0.00 0.00 0.00 43 1021.4
20260502053004 14 25 0.0 0.0 0.00 0.00 0.00 43 1021.4
20260502052505 14 25 0.0 0.0 0.00 0.00 0.00 42 1021.4
20260502052005 14 26 0.0 0.0 0.00 0.00 0.00 42 1021.4
20260502051505 15 25 0.0 0.0 0.00 0.00 0.00 40 1021.4